Temp
10 10 10 11 11 11 12 13 12 12 11 12 12 13 13 12 12 11 13 15 14 15 15 15 16 17 16 14 11 17 21 24 25 23 26 23 24 22 22 22 22 21 23 20 18
10 10 10 10 12 11 11 12 13 12 12 12 12 12 13 12 11 11 14 14 14 15 15 17 18 17 17 14 12 13 20 23 22 23 24 23 24 23 23 22 21 20 17 17 17
10 10 10 10 10 12 11 11 13 13 13 12 12 12 12 12 14 15 15 13 14 15 16 17 18 19 18 17 13 12 17 20 22 21 21 23 22 23 24 23 24 23 19 18 18
9 9 10 10 10 10 13 12 12 13 13 13 13 12 12 12 15 16 15 14 14 15 15 17 18 17 18 18 15 17 14 19 21 20 20 21 23 23 24 24 23 23 20 18 19
9 9 9 9 9 10 11 13 12 12 13 13 12 12 11 12 14 16 14 15 15 14 16 18 18 19 20 18 16 18 13 18 18 19 19 20 21 23 22 21 20 20 19 19 19
9 9 9 9 9 12 10 12 11 13 12 13 12 12 13 13 15 15 15 15 15 15 16 17 19 20 21 19 20 18 15 16 18 19 19 20 21 19 23 19 19 19 19 19 19
9 8 8 9 9 11 12 11 12 12 13 13 12 12 13 15 15 15 15 15 15 15 17 17 18 17 20 19 19 17 15 16 17 18 20 20 21 21 21 19 19 19 19 18 18
10 9 10 9 9 11 13 12 12 11 13 13 12 12 14 15 14 15 15 14 15 15 16 17 17 18 19 19 19 19 19 19 18 18 18 19 25 24 20 20 19 19 19 18 17
10 10 10 10 11 11 12 13 12 13 12 12 12 13 14 14 14 15 15 16 15 15 16 16 17 19 17 19 19 19 20 18 20 18 18 20 24 20 18 20 20 19 19 18 17
9 10 10 10 11 11 12 13 12 12 11 12 12 13 15 15 15 15 15 15 16 16 17 18 17 20 20 20 20 21 19 19 21 19 18 19 21 20 18 19 21 20 19 18 17
9 10 10 10 11 11 12 13 14 14 12 16 16 16 15 15 14 14 15 16 17 17 17 18 19 19 21 22 21 22 22 21 21 18 19 20 21 22 19 18 20 20 20 18 18
9 9 9 10 11 11 11 13 14 13 14 15 15 16 15 15 15 15 15 17 17 17 18 18 18 21 21 19 19 21 22 21 18 17 18 19 20 22 20 19 20 20 19 18 17
7 9 9 9 11 11 10 12 12 13 14 16 14 15 15 15 16 16 16 17 17 18 17 19 20 19 19 18 19 20 22 20 22 17 18 19 22 21 21 20 19 20 20 19 17
7 7 8 9 11 9 11 12 11 13 14 16 14 15 15 16 16 16 16 17 17 17 18 20 17 18 19 20 21 20 19 19 18 20 23 18 25 22 22 18 18 19 19 18 17
6 6 8 8 9 10 11 11 12 13 14 15 14 14 15 17 16 15 15 16 18 17 18 18 16 17 19 20 20 20 17 19 18 19 20 19 22 26 17 19 19 19 18 17 17
6 6 6 8 8 10 10 11 12 14 13 14 14 14 14 15 15 14 16 16 16 16 16 17 15 17 19 14 17 16 18 18 18 19 20 23 22 25 22 21 21 19 17 17 16
5 5 6 6 10 10 10 12 13 13 15 15 14 14 15 15 15 15 15 15 17 16 17 15 15 15 15 16 15 17 20 18 19 18 20 16 18 24 21 18 18 18 17 16 15
5 6 6 7 8 9 9 12 12 17 17 14 13 14 15 15 16 15 15 16 16 17 18 17 16 15 16 18 17 18 21 20 19 19 22 15 19 23 17 15 15 15 16 15 14
4 6 6 7 8 8 11 11 15 16 17 14 14 14 15 15 15 16 16 17 19 16 20 18 17 13 14 14 18 17 17 18 17 14 19 21 20 20 16 15 15 14 14 14 14
4 5 7 8 8 7 10 11 14 16 15 15 17 17 16 15 15 16 15 18 17 17 17 18 17 13 13 14 14 16 17 18 17 17 20 20 19 24 16 17 15 14 15 14 14
4 6 9 8 7 7 8 11 13 15 15 15 17 16 17 15 16 16 17 16 18 15 17 17 17 13 13 15 17 15 16 16 18 19 21 22 22 19 20 19 16 15 15 14 13
3 4 7 7 7 8 8 11 13 14 15 14 14 15 16 15 16 16 17 19 17 15 16 17 16 14 15 12 12 15 17 18 20 16 16 17 21 15 15 16 16 15 14 13 13
3 4 6 6 6 8 10 9 11 13 14 15 15 15 13 15 15 16 16 13 13 16 18 15 16 13 14 14 12 14 15 17 13 16 15 20 21 13 13 13 14 13 12 12 11
3 4 7 6 7 7 8 9 10 12 14 15 15 14 13 13 13 15 14 12 11 15 14 16 15 19 20 19 16 13 15 15 17 15 19 20 20 14 13 13 12 12 12 11 10
3 4 5 5 6 5 4 5 9 11 13 15 14 14 16 15 13 13 13 11 11 12 13 16 13 16 13 13 14 15 15 15 14 18 17 21 19 20 16 14 12 12 11 10 9
3 3 4 4 5 6 6 7 7 10 14 13 14 16 15 15 16 14 13 13 14 11 13 12 11 9 10 12 14 14 14 15 16 18 17 16 18 14 16 14 11 10 9 9 8
2 1 2 4 5 6 6 6 5 9 13 15 15 15 14 15 13 12 13 15 15 14 13 13 10 12 15 11 12 14 14 14 15 17 17 16 19 11 10 11 11 10 9 9 8
Height
830 828 826 823 822 821 818 816 814 813 810 806 803 801 802 804 806 807 807 806 806 805 805 806 808 810 812 818 823 817 823 816 807 811 798 802 804 808 811 812 815 818 816 822 828
829 827 825 824 820 819 817 814 812 811 810 806 803 802 803 804 806 805 802 804 804 804 806 804 805 808 813 819 826 830 828 813 811 808 801 804 803 807 810 813 816 819 824 825 828
827 826 824 823 821 819 816 812 810 809 807 805 804 803 804 805 806 797 797 799 803 804 805 805 804 805 808 813 825 832 831 818 810 810 808 806 809 807 806 813 805 810 820 825 828
826 823 822 820 819 818 816 811 808 808 806 803 802 802 805 806 802 793 795 796 799 803 804 803 803 806 805 807 814 816 822 821 810 813 811 811 805 806 804 804 805 807 817 822 826
826 822 818 816 815 815 814 811 806 806 805 803 801 801 804 806 799 793 792 792 798 801 801 801 799 799 797 802 811 804 817 820 821 817 814 814 810 806 806 809 810 812 819 822 825
825 822 817 813 811 810 811 810 807 803 804 802 800 801 801 802 794 792 792 792 797 799 797 800 795 795 792 796 797 796 815 824 820 815 814 814 812 812 802 810 813 815 818 821 825
822 817 814 811 809 807 806 807 807 803 803 802 799 799 798 791 790 793 792 792 794 797 797 798 797 799 791 797 799 799 822 825 818 818 813 813 813 807 803 809 813 814 818 822 825
821 818 813 809 806 804 805 803 804 803 800 802 800 798 791 786 788 792 792 792 794 798 798 796 798 797 795 793 801 807 812 822 815 814 814 816 796 792 804 807 810 813 819 822 826
820 816 812 807 803 802 799 800 800 802 800 800 802 797 787 783 786 788 791 792 793 796 795 794 796 793 798 792 801 801 800 812 805 812 813 814 792 802 806 804 806 811 816 820 824
819 816 810 806 802 799 798 795 796 800 803 802 800 800 783 778 781 785 788 791 790 792 792 792 793 787 787 783 786 785 800 806 802 806 813 811 799 800 805 805 802 807 812 817 821
816 812 809 804 801 797 795 795 796 798 798 785 780 776 773 775 778 782 785 787 787 785 784 786 786 780 774 774 778 778 787 795 797 805 803 801 794 791 800 806 801 803 808 814 818
813 809 805 802 798 794 794 792 787 788 784 778 778 777 773 771 776 780 784 783 781 781 780 788 780 768 773 783 788 786 787 793 806 808 804 800 793 787 794 795 795 798 803 810 816
810 806 802 798 793 791 791 790 787 786 781 767 767 767 771 771 769 772 778 778 776 777 778 774 767 775 778 786 788 787 781 791 787 804 803 800 781 780 783 788 791 793 798 805 811
808 804 800 796 795 791 787 786 786 785 782 759 761 759 765 762 766 768 773 774 775 774 777 771 775 774 777 777 777 785 785 787 795 790 783 798 771 771 772 785 788 789 793 800 807
805 802 798 795 796 792 788 785 785 786 779 754 759 758 761 754 754 766 771 773 768 770 773 770 776 776 774 770 775 776 789 789 793 791 791 793 788 751 783 781 778 780 787 796 803
802 798 796 792 790 789 786 785 785 785 773 753 752 758 762 757 752 762 767 772 772 772 774 772 778 773 768 785 781 788 787 793 794 791 794 769 777 753 760 760 762 773 784 791 800
797 793 792 792 786 785 786 785 783 770 743 743 746 752 752 756 753 751 760 766 760 768 767 777 776 778 776 781 789 782 775 796 800 803 786 799 794 749 758 765 768 769 778 788 797
790 784 782 781 781 783 785 780 765 725 727 737 740 745 748 749 747 746 755 756 756 754 754 762 776 772 768 765 768 773 762 771 787 784 767 805 778 747 764 771 774 775 778 788 795
784 778 775 767 773 777 779 766 720 721 716 730 738 740 742 743 746 743 738 742 736 747 737 746 755 775 774 772 763 772 775 771 783 801 777 762 760 755 767 772 773 776 782 788 794
780 774 766 759 764 770 767 734 717 713 716 719 710 715 720 729 737 733 733 717 730 734 739 737 755 773 776 773 775 767 766 775 779 787 769 762 763 733 761 762 771 777 779 787 794
781 773 757 755 761 761 739 724 719 714 714 712 702 709 708 717 718 723 714 715 710 728 734 738 739 775 775 764 756 772 767 770 762 761 748 751 741 743 742 750 764 771 778 786 794
783 777 757 758 753 739 729 721 721 715 712 712 708 704 704 708 710 713 709 700 703 713 726 731 743 759 757 770 770 760 752 751 748 769 770 763 743 757 758 758 762 771 780 788 795
781 771 755 758 748 737 723 724 720 712 708 705 698 699 705 702 705 703 705 714 714 709 706 726 734 758 763 767 771 761 756 749 766 760 767 751 737 764 764 766 769 774 783 791 800
781 769 752 750 743 738 727 719 708 704 700 697 694 697 703 702 702 697 707 717 719 713 713 711 723 711 711 714 732 752 745 751 745 760 740 738 737 759 762 766 772 776 784 794 802
778 767 758 750 739 742 743 734 702 693 691 686 692 688 684 693 699 700 706 718 721 717 717 710 724 720 733 733 731 728 730 740 748 731 745 724 737 731 745 756 767 776 786 795 804
778 770 763 756 743 732 725 711 703 690 674 677 674 675 681 679 678 693 694 701 701 718 716 721 730 744 748 741 733 731 733 733 734 733 736 743 738 748 747 759 771 779 788 796 804
778 775 769 746 737 729 717 708 708 687 667 660 662 666 673 672 679 685 684 682 689 696 705 712 733 726 721 742 738 733 724 728 727 724 730 737 724 753 763 763 767 777 785 794 803
Wind_Speed
14 14 14 11 12 14 11 11 12 14 15 12 10 4 8 10 14 7 12 9 13 3 8 12 10 10 8 5 4 4 5 5 3 4 3 10 8 4 2 9 4 3 1 4 22
14 15 15 16 13 14 14 12 12 13 15 12 9 2 4 10 6 8 16 14 11 9 10 16 14 15 4 5 3 5 4 3 4 5 2 10 7 11 7 9 5 5 6 16 20
16 15 15 16 17 16 16 13 13 15 13 11 8 2 6 7 4 7 12 19 12 12 10 12 12 11 6 7 6 7 6 6 4 5 3 7 5 5 7 9 9 12 15 19 19
18 17 16 16 17 18 17 16 13 13 11 8 5 2 5 6 6 1 8 12 15 16 9 11 12 6 7 12 8 11 5 7 6 4 1 4 5 5 11 2 2 7 18 21 17
21 19 17 16 16 17 17 18 12 12 10 8 3 5 8 3 8 3 1 11 12 14 16 12 16 7 11 11 8 6 5 8 5 3 3 3 5 3 9 3 4 14 18 16 16
21 22 19 17 15 14 16 17 14 8 10 7 4 10 4 7 6 9 4 10 14 17 16 17 10 7 7 14 12 12 10 7 5 1 2 5 3 2 6 7 10 15 15 14 15
21 21 19 18 16 13 12 15 17 8 9 6 6 10 5 10 4 9 11 20 18 19 16 19 11 6 9 17 4 15 8 5 6 4 3 2 8 10 5 10 13 15 13 12 13
23 25 25 18 15 12 13 12 14 13 6 6 8 7 6 4 9 14 13 10 17 18 14 12 8 3 4 10 7 9 6 7 4 10 2 6 11 11 9 13 15 15 13 13 12
25 26 25 23 16 12 10 12 9 13 8 8 6 6 6 1 6 14 15 13 14 14 10 5 5 4 5 10 6 4 6 5 2 9 5 12 6 4 7 12 14 15 14 13 12
25 27 26 24 19 14 11 8 3 3 4 6 2 4 6 4 6 10 14 12 7 12 7 8 4 10 8 12 16 14 7 7 19 10 11 11 14 4 9 12 15 16 15 14 13
23 24 27 26 23 16 10 0 4 4 9 10 8 6 3 5 5 7 9 10 6 12 12 11 11 18 21 15 1 12 14 9 8 7 10 16 12 13 10 13 15 16 15 14 14
22 23 25 28 28 15 7 4 2 1 9 22 14 16 2 9 6 7 10 12 11 15 12 8 19 18 11 11 5 11 14 10 3 6 9 7 15 14 14 16 19 18 17 16 15
25 21 24 28 23 3 4 9 5 1 5 9 10 14 6 12 8 14 13 7 15 18 17 18 15 11 11 10 10 8 12 9 2 8 5 4 8 12 14 14 15 18 17 16 17
24 26 21 26 3 12 4 7 5 3 4 6 6 7 10 10 6 9 20 6 7 20 17 10 7 16 12 17 15 15 7 8 11 10 4 3 4 7 14 15 17 19 18 17 18
27 26 21 14 13 7 5 4 1 4 6 5 4 3 6 13 13 8 7 4 12 10 10 8 12 15 16 12 15 4 8 8 6 4 2 6 4 3 6 13 19 19 20 18 18
25 27 23 11 7 12 12 4 2 4 9 6 7 8 11 8 7 7 7 2 2 5 3 2 0 4 5 5 4 17 11 7 4 2 6 11 10 7 7 7 8 18 17 18 18
27 29 24 16 5 6 9 3 4 8 1 8 7 9 17 11 7 12 17 14 10 9 13 4 6 3 8 10 9 6 15 4 4 4 6 1 7 11 4 4 3 13 18 18 18
31 34 20 17 18 11 4 5 13 11 12 3 6 9 13 12 10 12 14 20 16 6 11 11 7 11 8 5 11 15 10 5 8 6 5 3 8 4 2 2 2 5 14 16 18
34 21 11 17 19 15 8 13 12 14 7 13 9 7 13 12 5 12 18 22 16 15 8 12 7 2 2 3 6 8 8 3 6 1 3 6 5 7 6 5 5 11 15 17 18
26 15 14 18 17 16 10 27 15 7 6 8 17 15 17 18 11 17 19 17 14 17 5 6 6 3 3 3 3 3 11 4 2 6 6 5 5 4 11 12 10 13 16 17 17
14 7 8 6 20 5 14 15 21 12 6 11 15 14 10 13 18 13 16 7 22 17 12 7 3 5 6 10 13 5 6 2 2 3 4 4 4 1 5 14 15 14 16 17 17
5 6 5 6 9 5 16 14 14 13 17 10 3 6 13 15 16 16 17 10 14 18 18 9 5 5 8 2 4 4 7 10 5 6 2 2 2 2 6 8 11 14 15 16 16
4 6 9 16 6 12 15 16 23 21 21 8 11 9 4 11 8 18 11 1 11 17 21 13 7 6 4 3 3 8 9 8 4 1 8 7 3 2 3 6 9 15 16 16 16
3 4 3 2 6 13 15 23 27 23 27 17 9 7 5 7 4 10 8 1 6 8 4 16 6 13 13 4 11 10 18 15 11 4 8 9 5 8 9 11 12 15 17 17 15
3 4 4 7 11 14 17 11 24 28 28 24 10 18 14 9 8 6 6 4 2 3 4 10 7 9 3 3 6 6 18 23 18 18 10 11 10 12 16 16 16 17 17 17 16
4 4 3 14 16 17 15 7 17 23 22 25 25 22 14 12 14 11 11 8 6 7 8 3 4 4 3 3 4 4 10 22 22 17 13 2 10 3 10 14 15 18 18 18 17
5 8 4 10 16 13 9 13 19 25 23 24 25 17 19 17 3 4 3 8 9 13 15 10 7 4 7 4 3 5 16 21 18 19 17 14 9 13 10 16 19 19 18 18 17
Wind_Direction
330 327 319 313 313 313 323 336 336 347 331 334 336 305 229 204 193 186 214 225 225 177 182 163 167 160 128 87 43 62 280 247 264 186 162 151 172 149 106 140 149 135 137 120 150
329 323 321 311 304 304 312 320 324 327 333 337 346 359 190 187 189 227 234 235 233 204 192 178 174 166 129 112 99 115 272 250 349 292 354 177 195 160 172 160 170 154 110 141 146
334 325 318 314 309 304 306 308 313 312 321 323 334 325 192 194 248 242 235 233 224 199 205 193 178 183 172 157 163 152 211 357 331 309 318 198 197 170 176 196 194 189 156 156 155
342 332 322 318 309 311 303 305 311 311 311 313 313 248 197 172 228 214 223 219 201 205 192 185 184 191 173 172 177 160 214 289 319 347 296 204 164 197 206 95 229 173 160 157 162
348 340 331 321 313 311 306 302 307 311 306 305 268 183 153 219 257 296 61 155 186 202 201 197 189 196 192 161 149 168 113 292 275 280 271 199 211 255 215 140 136 142 156 164 163
353 346 337 327 317 305 307 303 301 303 292 285 214 175 178 245 262 225 148 179 213 205 205 211 209 217 228 173 176 168 137 243 244 217 246 235 218 244 194 147 149 158 164 164 165
355 354 346 335 324 309 302 304 298 287 289 269 201 175 220 244 197 214 207 212 210 212 210 211 232 235 164 161 124 121 125 258 243 215 224 220 238 229 159 165 164 169 167 164 163
356 355 353 342 329 319 304 298 299 283 241 254 201 176 251 250 232 216 233 225 216 216 222 214 216 198 255 128 113 149 159 182 173 174 173 201 246 210 169 172 177 173 171 167 167
354 355 355 350 333 319 307 295 290 283 249 199 191 214 248 207 188 215 214 214 191 206 221 171 172 181 162 174 142 207 173 214 345 201 166 209 245 147 178 192 181 180 176 173 164
347 350 351 351 343 324 312 294 286 177 178 180 268 235 232 210 171 184 204 198 173 172 156 191 191 193 194 195 187 176 170 201 221 196 211 207 240 187 187 197 190 186 182 179 176
336 343 345 344 343 330 320 322 163 196 207 218 208 229 156 154 145 179 184 176 174 180 184 191 199 203 201 201 83 186 200 197 201 180 196 219 239 222 190 203 201 194 190 187 181
321 331 336 337 334 313 280 235 237 124 283 230 240 238 221 157 163 199 172 184 190 187 183 182 215 201 184 186 150 174 185 193 145 177 212 209 243 231 201 209 204 198 195 190 174
338 329 329 332 331 358 254 249 289 328 259 247 204 207 190 183 186 190 181 203 193 192 200 202 206 162 172 171 177 198 209 180 205 164 212 253 252 208 211 209 206 209 202 191 183
343 328 330 331 324 330 280 307 262 195 277 246 199 205 177 165 197 175 189 200 190 200 194 224 176 176 181 194 194 211 193 162 149 181 230 235 256 202 195 205 207 199 198 190 185
334 332 322 309 301 298 321 325 230 252 282 133 144 110 200 178 129 173 164 195 202 176 190 184 177 177 191 197 189 173 153 148 154 163 248 188 250 199 169 217 212 203 196 190 183
332 330 333 295 272 284 294 293 222 218 245 182 139 181 173 214 137 121 165 178 114 152 176 145 296 199 170 106 195 138 120 92 104 154 248 224 225 228 194 215 205 196 193 187 180
330 327 310 292 251 303 327 227 192 225 123 184 175 170 198 197 153 165 177 189 179 170 190 158 174 154 152 105 142 189 162 144 193 193 236 159 217 252 186 165 160 193 185 178 173
333 323 301 264 255 248 257 212 228 202 203 114 141 155 192 168 204 159 177 205 223 215 164 177 198 183 172 206 179 182 198 185 188 192 192 144 227 227 149 153 169 189 167 165 169
336 319 280 262 235 221 206 217 219 208 180 155 139 169 200 210 216 186 191 209 213 204 202 186 173 132 175 156 170 168 211 70 103 27 205 189 239 225 167 170 160 148 157 165 166
334 313 264 260 214 175 211 233 221 214 140 181 190 191 189 191 192 201 181 196 206 201 234 185 147 187 127 151 52 233 145 160 232 181 219 192 257 238 191 185 165 165 168 164 162
334 320 284 238 179 196 222 225 225 244 206 192 209 188 208 180 202 204 202 175 196 182 185 161 124 139 161 214 181 156 188 201 181 277 225 195 213 33 200 175 173 170 166 161 158
290 308 308 156 219 215 242 238 257 257 236 248 245 226 186 181 190 201 212 230 185 157 184 172 117 155 187 27 308 253 201 186 192 188 225 355 237 117 112 141 165 161 157 156 153
295 288 301 231 234 248 248 236 246 233 242 233 229 212 183 181 186 208 200 63 168 173 178 171 171 125 156 210 195 219 194 200 109 78 193 181 198 152 141 149 162 160 159 154 150
289 299 279 235 270 277 254 247 231 222 235 233 249 181 156 201 206 182 196 132 190 201 149 169 161 209 212 188 145 197 199 194 192 190 181 219 164 189 185 172 165 164 160 153 152
258 257 295 295 305 300 285 274 250 223 217 217 232 224 210 205 186 175 164 133 154 187 175 181 177 194 54 129 171 193 195 189 200 208 200 219 211 188 188 177 167 159 155 153 153
295 339 315 292 285 292 293 261 252 238 216 216 220 217 210 206 196 189 157 180 182 173 176 195 139 114 130 147 184 192 203 200 211 210 237 195 210 106 141 145 156 162 161 160 158
283 287 263 284 288 295 298 314 305 248 231 229 207 203 206 217 139 350 130 149 160 173 180 160 143 165 186 151 143 269 208 191 200 206 207 206 206 155 165 171 170 165 166 161 157